Location: Tabor
(49.4170°N, 14.6670°E)
Time: 01:00:02
(UTC+02:00)

ISS - Visible Passes

Search period start: 06 May 2021 00:00
Search period end: 16 May 2021 00:00
Orbit: 418 x 421 km, 51.6° (Epoch: 05 May)

Date Brightness Start Highest point End Pass type
(mag) Time Alt. Az. Time Alt. Az. Time Alt. Az.
06 May -3.6 02:48:19 62° SE 02:48:19 62° SE 02:51:27 10° ENE visible
06 May -3.2 04:21:39 10° W 04:24:59 58° N 04:28:20 10° ENE visible
07 May -1.9 02:02:24 24° E 02:02:24 24° E 02:03:58 10° ENE visible
07 May -3.4 03:35:20 20° W 03:37:30 64° N 03:40:52 10° ENE visible
08 May -3.7 02:49:24 54° W 02:50:02 75° NNW 02:53:25 10° ENE visible
08 May -3.1 04:23:42 10° WNW 04:27:03 58° N 04:30:24 10° E visible
09 May -3.0 02:03:25 48° ENE 02:03:25 48° ENE 02:05:59 10° ENE visible
09 May -3.1 03:36:21 11° W 03:39:33 56° N 03:42:54 10° E visible
10 May -1.5 01:17:25 19° ENE 01:17:25 19° ENE 01:18:31 10° ENE visible
10 May -3.2 02:50:21 26° WNW 02:52:03 58° N 02:55:24 10° ENE visible
10 May -3.6 04:25:41 10° WNW 04:29:05 78° NNE 04:32:27 10° ESE visible
11 May -3.4 02:04:19 61° NW 02:04:33 64° N 02:07:55 10° ENE visible
11 May -3.4 03:38:13 10° WNW 03:41:35 65° N 03:44:58 10° E visible
12 May -2.6 01:18:14 38° ENE 01:18:14 38° ENE 01:20:27 10° ENE visible
12 May -3.2 02:51:09 13° WNW 02:54:06 58° N 02:57:27 10° E visible
12 May -3.7 04:27:38 10° WNW 04:30:58 62° SSW 04:34:19 10° SE visible
13 May -1.5 00:32:03 18° ENE 00:32:03 18° ENE 00:33:00 10° ENE visible
13 May -3.1 02:04:58 27° WNW 02:06:35 56° N 02:09:55 10° E visible
13 May -3.9 03:40:10 10° WNW 03:43:33 83° SSW 03:46:56 10° ESE visible
14 May -3.2 01:18:34 50° NW 01:19:04 58° N 01:22:25 10° ENE visible
14 May -3.7 02:52:42 10° WNW 02:56:05 78° NNE 02:59:28 10° ESE visible
14 May -2.9 04:29:42 10° W 04:32:43 30° SW 04:35:43 10° SSE visible
14 May -3.6 22:51:32 10° SW 22:54:46 46° SSE 22:58:02 10° ENE visible
15 May -3.4 00:28:12 10° W 00:31:34 64° N 00:34:55 10° ENE visible
15 May -3.4 02:05:14 10° WNW 02:08:36 65° N 02:11:58 10° E visible
15 May -3.4 03:42:08 10° WNW 03:45:22 43° SSW 03:48:35 10° SE visible
15 May -3.1 22:04:22 10° SSW 22:07:25 32° SSE 22:10:28 10° E visible
15 May -3.6 23:40:42 10° W 23:44:04 75° NNW 23:47:27 10° ENE visible
